Location: ???????
(55.7027°N, 37.3832°E)
Time: 08:47:24
(UTC+00:00)

Cosmos 2056 Rocket - Pass Details

Date: 14 April 2026
Orbit: 738 x 796 km, 74.0° (Epoch: 9 May)

Event Time Altitude Azimuth Distance (km) Brightness Sun altitude
Exits shadow 21:36:57 39° 112° (ESE) 1,175 4.2 -24.6°
Maximum altitude 21:37:12 40° 105° (ESE) 1,171 4.3 -24.6°
Drops below altitude 10° 21:42:12 10° 38° (NE) 2,379 6.7 -24.6°
Sets 21:44:44 0° 31° (NNE) 3,313 7.8 -24.6°
